TimeEST,TemperatureF,Dew PointF,Humidity,Sea Level PressureIn,VisibilityMPH,Wind Direction,Wind SpeedMPH,Gust SpeedMPH,PrecipitationIn,Events,Conditions,WindDirDegrees,DateUTC
12:53 AM,64.9,64.0,97,29.90,10.0,Calm,Calm,-,0.18,Rain,Light Rain,0,2013-12-15 05:53:00
1:02 AM,64.9,64.9,100,29.91,8.0,South,3.5,-,0.00,Rain,Rain,170,2013-12-15 06:02:00
1:35 AM,64.9,64.9,100,29.89,6.0,Calm,Calm,-,0.05,Rain,Rain,0,2013-12-15 06:35:00
1:50 AM,64.4,64.4,100,29.89,4.0,Calm,Calm,-,0.09,Rain,Heavy Rain,0,2013-12-15 06:50:00
1:53 AM,64.9,64.9,100,29.88,4.0,Calm,Calm,-,0.11,Rain,Heavy Rain,0,2013-12-15 06:53:00
2:00 AM,64.9,64.9,100,29.88,3.0,Calm,Calm,-,0.02,Rain,Rain,0,2013-12-15 07:00:00
2:15 AM,64.9,64.9,100,29.88,5.0,Calm,Calm,-,0.05,Rain,Rain,0,2013-12-15 07:15:00
2:23 AM,64.9,64.0,97,29.89,3.0,Calm,Calm,-,0.06,Rain,Rain,0,2013-12-15 07:23:00
2:36 AM,64.9,64.9,100,29.89,4.0,SW,3.5,-,0.10,Rain,Rain,220,2013-12-15 07:36:00
2:53 AM,66.0,64.9,96,29.87,9.0,South,3.5,-,0.14,Rain,Light Rain,190,2013-12-15 07:53:00
3:03 AM,66.0,66.0,100,29.87,7.0,Calm,Calm,-,0.01,Rain,Light Rain,0,2013-12-15 08:03:00
3:53 AM,66.0,64.9,96,29.89,8.0,WSW,8.1,-,0.02,Rain,Light Rain,240,2013-12-15 08:53:00
4:26 AM,66.0,64.9,96,29.90,3.0,West,9.2,-,0.01,Rain,Rain,270,2013-12-15 09:26:00
4:53 AM,64.9,64.0,97,29.91,6.0,WNW,10.4,-,0.05,Rain,Light Rain,300,2013-12-15 09:53:00
5:53 AM,59.0,57.0,93,29.96,9.0,NNW,10.4,-,0.01,Rain,Light Rain,330,2013-12-15 10:53:00
6:00 AM,59.0,57.0,93,29.96,10.0,NNW,8.1,-,0.00,Rain,Light Rain,330,2013-12-15 11:00:00
6:09 AM,59.0,57.0,93,29.96,10.0,NNW,9.2,-,0.00,Rain,Light Rain,330,2013-12-15 11:09:00
6:53 AM,59.0,55.9,90,29.96,10.0,Calm,Calm,-,0.01,,Overcast,0,2013-12-15 11:53:00
7:53 AM,59.0,55.9,90,29.99,4.0,Calm,Calm,-,0.02,Rain,Light Rain,0,2013-12-15 12:53:00
8:03 AM,57.9,57.0,97,30.00,1.8,Calm,Calm,-,0.03,Rain,Heavy Rain,0,2013-12-15 13:03:00
8:21 AM,57.9,57.0,97,29.99,3.0,Calm,Calm,-,0.15,Rain,Heavy Rain,0,2013-12-15 13:21:00
8:30 AM,57.9,55.9,93,29.98,2.5,ESE,5.8,-,0.19,Rain,Rain,120,2013-12-15 13:30:00
8:38 AM,57.9,55.9,93,30.01,9.0,South,5.8,-,0.19,Rain,Light Rain,170,2013-12-15 13:38:00
8:53 AM,57.9,57.0,97,30.01,2.5,South,6.9,-,0.22,Rain,Rain,170,2013-12-15 13:53:00
9:02 AM,57.9,57.0,97,30.01,4.0,South,5.8,-,0.03,Rain,Light Rain,170,2013-12-15 14:02:00
9:43 AM,59.0,57.9,96,30.04,10.0,SSW,3.5,-,0.04,,Overcast,200,2013-12-15 14:43:00
9:53 AM,59.0,57.9,96,30.04,10.0,SW,4.6,-,0.04,,Overcast,220,2013-12-15 14:53:00
10:53 AM,61.0,59.0,93,30.02,10.0,SW,5.8,-,N/A,,Mostly Cloudy,220,2013-12-15 15:53:00
11:53 AM,63.0,59.0,87,30.01,10.0,WSW,6.9,-,N/A,,Overcast,240,2013-12-15 16:53:00
12:09 PM,64.0,59.0,84,30.01,10.0,WSW,6.9,-,N/A,,Mostly Cloudy,240,2013-12-15 17:09:00
12:39 PM,66.0,57.9,75,30.00,10.0,West,11.5,-,N/A,,Scattered Clouds,280,2013-12-15 17:39:00
12:53 PM,66.0,57.0,73,29.99,10.0,WNW,12.7,21.9,N/A,,Partly Cloudy,290,2013-12-15 17:53:00
1:34 PM,64.9,57.0,75,29.99,10.0,WNW,8.1,-,N/A,,Mostly Cloudy,300,2013-12-15 18:34:00
1:53 PM,66.0,57.0,73,29.99,10.0,WNW,12.7,17.3,N/A,,Overcast,290,2013-12-15 18:53:00
2:00 PM,64.9,55.9,73,29.99,10.0,WNW,8.1,17.3,N/A,,Overcast,300,2013-12-15 19:00:00
2:34 PM,66.9,55.9,68,30.00,10.0,NW,10.4,-,N/A,,Overcast,310,2013-12-15 19:34:00
2:53 PM,66.0,55.9,70,30.00,10.0,NW,6.9,-,N/A,,Mostly Cloudy,320,2013-12-15 19:53:00
3:46 PM,63.0,55.9,78,30.01,10.0,NW,8.1,-,N/A,,Overcast,310,2013-12-15 20:46:00
3:53 PM,62.1,55.9,80,30.01,10.0,NW,10.4,-,N/A,,Overcast,320,2013-12-15 20:53:00
4:35 PM,61.0,54.0,78,30.02,10.0,NW,10.4,-,N/A,,Mostly Cloudy,310,2013-12-15 21:35:00
4:53 PM,60.1,54.0,80,30.02,10.0,NW,10.4,-,N/A,,Mostly Cloudy,310,2013-12-15 21:53:00
5:08 PM,59.0,53.1,81,30.03,10.0,WNW,9.2,-,N/A,,Overcast,290,2013-12-15 22:08:00
5:53 PM,57.0,52.0,83,30.05,10.0,NW,4.6,-,N/A,,Mostly Cloudy,320,2013-12-15 22:53:00
6:49 PM,55.4,51.8,88,30.07,10.0,NNW,6.9,-,N/A,,Overcast,330,2013-12-15 23:49:00
6:53 PM,55.9,52.0,87,30.07,10.0,NNW,8.1,-,N/A,,Overcast,330,2013-12-15 23:53:00
7:53 PM,54.0,48.9,83,30.10,10.0,NNW,10.4,-,N/A,,Overcast,340,2013-12-16 00:53:00
8:42 PM,52.0,46.0,80,30.12,10.0,NW,10.4,-,N/A,,Overcast,320,2013-12-16 01:42:00
8:53 PM,51.1,45.0,80,30.13,10.0,North,12.7,-,N/A,,Overcast,350,2013-12-16 01:53:00
9:34 PM,48.9,44.1,83,30.16,10.0,NNW,8.1,-,N/A,,Scattered Clouds,340,2013-12-16 02:34:00
9:53 PM,48.9,43.0,80,30.17,10.0,NNW,9.2,-,N/A,,Clear,340,2013-12-16 02:53:00
10:53 PM,46.9,41.0,80,30.19,10.0,NNW,4.6,-,N/A,,Clear,330,2013-12-16 03:53:00
11:53 PM,46.0,41.0,83,30.19,10.0,NNW,3.5,-,N/A,,Clear,330,2013-12-16 04:53:00